GFSCGP_prec_pwat_102.txt.gz
Precipitable_Water
0.60 0.44 0.37 0.47 0.60 0.60 0.57 0.54 0.48 0.64 0.72 0.71 0.71 0.74 0.78 0.70 0.49 0.43 0.41 0.43 0.47 0.45 0.56 0.67 0.75 0.83 0.88 0.91 0.88 0.89 0.89 0.87 0.86 0.86 0.85 0.89 0.88 0.95 0.99 1.05 1.06 1.02 1.02 1.00
0.48 0.36 0.47 0.55 0.60 0.60 0.58 0.51 0.50 0.57 0.66 0.71 0.71 0.71 0.81 0.80 0.65 0.49 0.43 0.41 0.42 0.50 0.50 0.61 0.67 0.76 0.78 0.84 0.89 0.92 0.94 0.94 0.92 0.89 0.94 1.00 0.99 1.02 1.05 1.09 1.06 1.04 1.04 1.03
0.37 0.41 0.56 0.50 0.49 0.53 0.53 0.56 0.51 0.52 0.63 0.69 0.66 0.62 0.70 0.78 0.80 0.66 0.48 0.46 0.44 0.45 0.44 0.52 0.59 0.66 0.74 0.75 0.81 0.87 0.91 0.97 0.97 0.96 1.00 1.03 1.06 1.06 1.02 0.98 0.95 1.00 1.03 1.05
0.49 0.54 0.49 0.47 0.44 0.55 0.45 0.63 0.58 0.58 0.56 0.44 0.61 0.41 0.58 0.64 0.68 0.72 0.55 0.45 0.43 0.43 0.45 0.50 0.53 0.58 0.64 0.70 0.82 0.84 0.89 0.92 0.96 1.00 0.96 0.92 0.88 0.83 0.89 0.91 0.92 0.98 1.01 1.05
0.47 0.50 0.47 0.41 0.43 0.57 0.51 0.65 0.62 0.57 0.51 0.47 0.48 0.42 0.46 0.61 0.57 0.65 0.68 0.51 0.41 0.42 0.43 0.44 0.45 0.49 0.59 0.68 0.69 0.78 0.84 0.89 0.95 0.98 0.97 0.93 0.88 0.93 0.97 0.97 0.93 0.96 1.02 1.00
0.56 0.65 0.58 0.50 0.56 0.58 0.57 0.50 0.53 0.53 0.50 0.32 0.42 0.41 0.38 0.50 0.54 0.61 0.66 0.66 0.63 0.45 0.41 0.43 0.46 0.48 0.52 0.62 0.65 0.69 0.72 0.78 0.87 0.90 0.92 0.91 0.90 0.91 0.93 0.96 0.93 0.95 0.96 0.94
0.51 0.53 0.63 0.64 0.50 0.56 0.51 0.48 0.32 0.31 0.30 0.25 0.38 0.37 0.39 0.52 0.53 0.53 0.61 0.65 0.68 0.67 0.46 0.39 0.41 0.42 0.45 0.51 0.54 0.58 0.61 0.63 0.76 0.82 0.84 0.87 0.91 0.94 0.91 0.94 0.95 0.95 0.96 0.95
0.38 0.34 0.50 0.60 0.49 0.41 0.49 0.44 0.29 0.20 0.20 0.23 0.36 0.25 0.32 0.43 0.43 0.46 0.59 0.61 0.60 0.59 0.65 0.51 0.40 0.42 0.40 0.43 0.48 0.51 0.52 0.53 0.66 0.74 0.74 0.81 0.86 0.89 0.92 0.97 0.99 0.99 0.97 0.96
0.36 0.37 0.59 0.61 0.58 0.55 0.44 0.43 0.50 0.36 0.34 0.27 0.27 0.28 0.34 0.36 0.34 0.36 0.43 0.52 0.51 0.50 0.54 0.60 0.54 0.42 0.42 0.40 0.43 0.46 0.48 0.53 0.60 0.64 0.73 0.76 0.81 0.85 0.88 0.94 1.01 1.00 1.04 1.00
0.44 0.35 0.53 0.55 0.62 0.59 0.50 0.53 0.38 0.42 0.27 0.23 0.24 0.24 0.24 0.31 0.32 0.36 0.37 0.42 0.51 0.56 0.52 0.55 0.57 0.45 0.44 0.42 0.40 0.41 0.43 0.48 0.53 0.61 0.67 0.72 0.78 0.85 0.91 0.96 0.94 0.97 1.02 0.99
0.48 0.41 0.42 0.53 0.49 0.45 0.47 0.43 0.44 0.42 0.38 0.26 0.22 0.23 0.32 0.25 0.27 0.31 0.34 0.36 0.38 0.49 0.52 0.53 0.51 0.46 0.44 0.46 0.45 0.41 0.41 0.45 0.50 0.59 0.67 0.71 0.74 0.81 0.87 0.89 0.90 0.97 1.01 1.02
0.46 0.41 0.35 0.41 0.56 0.61 0.56 0.47 0.44 0.33 0.28 0.33 0.30 0.23 0.31 0.29 0.28 0.27 0.30 0.34 0.34 0.34 0.43 0.48 0.52 0.53 0.52 0.50 0.45 0.44 0.43 0.45 0.50 0.60 0.67 0.70 0.72 0.76 0.80 0.82 0.86 0.93 0.95 0.96
0.46 0.40 0.31 0.34 0.44 0.52 0.45 0.50 0.47 0.45 0.42 0.31 0.28 0.22 0.36 0.37 0.38 0.34 0.28 0.30 0.34 0.35 0.37 0.41 0.46 0.49 0.52 0.54 0.52 0.47 0.46 0.48 0.53 0.58 0.66 0.69 0.71 0.74 0.76 0.78 0.82 0.84 0.87 0.91
0.48 0.37 0.31 0.23 0.27 0.38 0.36 0.40 0.43 0.42 0.32 0.24 0.28 0.21 0.31 0.34 0.35 0.39 0.39 0.38 0.37 0.36 0.34 0.37 0.39 0.43 0.48 0.55 0.57 0.57 0.52 0.54 0.55 0.55 0.57 0.60 0.63 0.69 0.72 0.72 0.73 0.71 0.82 0.88
0.45 0.30 0.31 0.31 0.31 0.31 0.32 0.34 0.38 0.35 0.28 0.29 0.21 0.24 0.24 0.33 0.36 0.41 0.45 0.42 0.38 0.36 0.36 0.35 0.35 0.40 0.44 0.48 0.53 0.57 0.59 0.58 0.58 0.54 0.53 0.53 0.55 0.59 0.61 0.65 0.66 0.68 0.82 0.86
0.42 0.30 0.33 0.29 0.33 0.32 0.29 0.33 0.35 0.34 0.34 0.35 0.28 0.28 0.34 0.39 0.38 0.37 0.41 0.42 0.40 0.39 0.38 0.38 0.38 0.36 0.39 0.44 0.49 0.54 0.59 0.58 0.60 0.57 0.54 0.56 0.56 0.56 0.58 0.58 0.63 0.70 0.77 0.84
0.36 0.33 0.29 0.24 0.31 0.31 0.25 0.26 0.30 0.32 0.35 0.31 0.27 0.23 0.38 0.36 0.37 0.38 0.39 0.41 0.42 0.41 0.41 0.39 0.41 0.39 0.38 0.40 0.46 0.49 0.56 0.60 0.57 0.57 0.57 0.56 0.56 0.56 0.56 0.61 0.65 0.68 0.85 0.79
0.35 0.33 0.32 0.25 0.29 0.18 0.25 0.31 0.32 0.30 0.31 0.35 0.33 0.30 0.36 0.36 0.38 0.39 0.41 0.40 0.43 0.45 0.45 0.43 0.42 0.43 0.41 0.41 0.44 0.48 0.58 0.61 0.58 0.56 0.57 0.60 0.62 0.61 0.63 0.64 0.71 0.81 0.73 0.74
0.42 0.33 0.28 0.23 0.22 0.23 0.24 0.28 0.28 0.27 0.24 0.33 0.31 0.33 0.36 0.36 0.39 0.33 0.38 0.40 0.41 0.44 0.49 0.51 0.46 0.44 0.42 0.43 0.46 0.46 0.47 0.51 0.56 0.60 0.59 0.61 0.62 0.64 0.65 0.65 0.65 0.68 0.73 0.70
0.41 0.39 0.29 0.25 0.19 0.15 0.23 0.30 0.35 0.34 0.19 0.32 0.32 0.32 0.32 0.35 0.25 0.26 0.37 0.40 0.41 0.44 0.45 0.41 0.46 0.47 0.46 0.45 0.49 0.49 0.46 0.47 0.49 0.54 0.60 0.65 0.67 0.67 0.68 0.70 0.71 0.72 0.70 0.64
0.31 0.33 0.26 0.25 0.22 0.24 0.31 0.33 0.36 0.20 0.22 0.31 0.33 0.33 0.33 0.30 0.32 0.35 0.39 0.40 0.42 0.42 0.41 0.43 0.44 0.46 0.49 0.52 0.51 0.49 0.52 0.48 0.53 0.55 0.59 0.61 0.65 0.66 0.68 0.69 0.69 0.69 0.66 0.64
0.26 0.26 0.25 0.28 0.22 0.17 0.35 0.34 0.25 0.30 0.34 0.34 0.34 0.36 0.35 0.36 0.36 0.37 0.38 0.40 0.40 0.39 0.41 0.45 0.44 0.45 0.49 0.50 0.49 0.48 0.49 0.55 0.57 0.59 0.58 0.58 0.62 0.65 0.67 0.68 0.68 0.66 0.63 0.57
0.27 0.30 0.27 0.28 0.26 0.35 0.36 0.35 0.38 0.39 0.37 0.38 0.38 0.41 0.41 0.38 0.38 0.39 0.40 0.43 0.44 0.45 0.46 0.49 0.49 0.50 0.51 0.52 0.53 0.50 0.51 0.54 0.57 0.58 0.58 0.59 0.61 0.63 0.67 0.66 0.64 0.60 0.56 0.50
0.35 0.39 0.31 0.31 0.34 0.34 0.38 0.41 0.42 0.42 0.42 0.43 0.44 0.43 0.43 0.40 0.41 0.42 0.44 0.45 0.48 0.50 0.51 0.53 0.53 0.53 0.53 0.56 0.56 0.56 0.57 0.58 0.57 0.55 0.57 0.59 0.61 0.63 0.64 0.64 0.62 0.58 0.54 0.50
0.36 0.38 0.33 0.32 0.35 0.38 0.39 0.41 0.43 0.45 0.45 0.44 0.46 0.45 0.45 0.47 0.46 0.47 0.46 0.47 0.49 0.50 0.52 0.54 0.54 0.54 0.55 0.58 0.59 0.60 0.60 0.59 0.56 0.56 0.55 0.56 0.56 0.56 0.56 0.56 0.55 0.53 0.51 0.49
0.41 0.36 0.30 0.28 0.37 0.37 0.38 0.44 0.47 0.44 0.44 0.46 0.46 0.46 0.49 0.49 0.48 0.49 0.49 0.52 0.52 0.51 0.52 0.53 0.54 0.55 0.56 0.58 0.59 0.60 0.61 0.61 0.59 0.58 0.58 0.59 0.59 0.58 0.58 0.56 0.55 0.55 0.52 0.50

GFSCGP_prec_pwat_105.txt.gz
Precipitable_Water
0.63 0.46 0.34 0.44 0.55 0.49 0.53 0.49 0.45 0.55 0.67 0.62 0.62 0.69 0.81 0.85 0.82 0.62 0.50 0.46 0.47 0.52 0.62 0.71 0.72 0.81 0.92 0.85 0.72 0.75 0.80 0.83 0.86 0.85 0.81 0.83 0.81 0.88 0.90 0.95 1.02 1.05 1.04 1.02
0.55 0.38 0.43 0.53 0.58 0.55 0.59 0.54 0.54 0.59 0.64 0.60 0.64 0.68 0.77 0.80 0.81 0.80 0.61 0.51 0.45 0.47 0.54 0.62 0.67 0.74 0.84 0.88 0.81 0.74 0.76 0.80 0.81 0.82 0.84 0.85 0.87 0.90 0.93 0.99 1.05 1.08 1.05 1.03
0.43 0.45 0.54 0.50 0.50 0.46 0.55 0.57 0.56 0.52 0.59 0.61 0.59 0.58 0.66 0.77 0.82 0.86 0.84 0.65 0.54 0.46 0.47 0.55 0.61 0.65 0.72 0.81 0.88 0.84 0.80 0.82 0.83 0.84 0.84 0.86 0.94 0.98 0.97 0.99 1.01 1.04 1.04 1.02
0.51 0.55 0.48 0.45 0.43 0.48 0.41 0.61 0.59 0.57 0.49 0.41 0.58 0.37 0.56 0.67 0.70 0.77 0.82 0.73 0.58 0.51 0.48 0.51 0.58 0.62 0.65 0.71 0.85 0.93 0.92 0.87 0.87 0.90 0.85 0.82 0.78 0.77 0.88 0.95 1.02 1.02 1.01 0.97
0.46 0.46 0.47 0.46 0.43 0.52 0.48 0.59 0.59 0.57 0.51 0.49 0.45 0.40 0.40 0.56 0.55 0.66 0.70 0.79 0.76 0.56 0.51 0.50 0.51 0.54 0.62 0.70 0.72 0.81 0.89 0.90 0.89 0.88 0.86 0.83 0.81 0.85 0.92 0.94 0.96 0.95 0.96 0.99
0.58 0.63 0.55 0.54 0.56 0.56 0.56 0.50 0.52 0.55 0.52 0.36 0.40 0.38 0.34 0.40 0.45 0.58 0.69 0.73 0.82 0.79 0.50 0.50 0.55 0.59 0.63 0.69 0.73 0.75 0.79 0.80 0.86 0.86 0.87 0.84 0.83 0.83 0.85 0.89 0.88 0.93 0.97 0.96
0.56 0.56 0.60 0.61 0.49 0.58 0.52 0.44 0.33 0.29 0.34 0.28 0.41 0.37 0.34 0.43 0.50 0.55 0.66 0.68 0.74 0.81 0.69 0.50 0.49 0.56 0.59 0.61 0.64 0.70 0.71 0.69 0.79 0.84 0.83 0.85 0.87 0.88 0.85 0.87 0.90 0.91 0.94 0.93
0.41 0.37 0.53 0.61 0.51 0.43 0.44 0.40 0.29 0.21 0.21 0.22 0.37 0.25 0.31 0.38 0.44 0.54 0.65 0.59 0.60 0.68 0.71 0.73 0.71 0.63 0.61 0.61 0.60 0.63 0.64 0.62 0.74 0.77 0.76 0.83 0.89 0.88 0.88 0.91 0.95 0.95 0.95 0.97
0.42 0.42 0.59 0.58 0.58 0.53 0.47 0.40 0.45 0.31 0.31 0.26 0.27 0.29 0.36 0.34 0.33 0.40 0.45 0.46 0.50 0.62 0.64 0.67 0.67 0.70 0.74 0.66 0.63 0.61 0.61 0.62 0.67 0.72 0.75 0.79 0.84 0.86 0.84 0.89 0.96 0.97 0.98 1.01
0.50 0.38 0.56 0.63 0.64 0.60 0.50 0.54 0.34 0.35 0.21 0.19 0.21 0.25 0.25 0.30 0.33 0.34 0.38 0.39 0.41 0.51 0.56 0.54 0.50 0.53 0.61 0.68 0.66 0.68 0.64 0.63 0.66 0.73 0.77 0.76 0.79 0.84 0.86 0.90 0.90 0.94 0.99 0.98
0.53 0.45 0.46 0.54 0.49 0.47 0.46 0.43 0.44 0.41 0.34 0.24 0.20 0.23 0.36 0.34 0.26 0.25 0.31 0.36 0.37 0.38 0.39 0.45 0.49 0.49 0.54 0.56 0.61 0.57 0.58 0.58 0.63 0.70 0.73 0.76 0.77 0.79 0.85 0.87 0.91 0.93 0.95 0.92
0.55 0.48 0.40 0.43 0.54 0.57 0.52 0.44 0.43 0.32 0.31 0.34 0.30 0.25 0.31 0.29 0.32 0.32 0.28 0.32 0.39 0.39 0.39 0.44 0.46 0.47 0.48 0.53 0.57 0.53 0.51 0.51 0.55 0.63 0.67 0.71 0.78 0.82 0.81 0.82 0.86 0.93 0.90 0.93
0.53 0.44 0.34 0.38 0.47 0.57 0.48 0.48 0.47 0.43 0.40 0.29 0.25 0.23 0.37 0.38 0.37 0.36 0.32 0.32 0.35 0.37 0.39 0.41 0.44 0.46 0.46 0.49 0.51 0.52 0.51 0.50 0.53 0.58 0.65 0.70 0.72 0.76 0.78 0.81 0.84 0.86 0.86 0.87
0.56 0.46 0.38 0.29 0.31 0.42 0.39 0.45 0.49 0.45 0.35 0.29 0.29 0.27 0.33 0.35 0.35 0.36 0.36 0.40 0.39 0.37 0.38 0.40 0.40 0.40 0.45 0.48 0.50 0.52 0.53 0.57 0.59 0.59 0.63 0.70 0.72 0.75 0.75 0.82 0.83 0.85 0.86 0.87
0.52 0.40 0.42 0.40 0.40 0.42 0.41 0.41 0.44 0.41 0.32 0.32 0.24 0.26 0.31 0.36 0.37 0.40 0.42 0.43 0.43 0.41 0.40 0.39 0.40 0.42 0.42 0.43 0.46 0.49 0.53 0.55 0.59 0.59 0.60 0.66 0.76 0.78 0.79 0.78 0.80 0.85 0.88 0.87
0.53 0.40 0.41 0.37 0.40 0.41 0.37 0.40 0.43 0.40 0.35 0.39 0.30 0.28 0.39 0.39 0.42 0.40 0.41 0.41 0.39 0.40 0.40 0.40 0.41 0.44 0.44 0.43 0.42 0.46 0.49 0.53 0.57 0.58 0.59 0.63 0.66 0.70 0.74 0.78 0.78 0.79 0.81 0.76
0.49 0.43 0.38 0.32 0.38 0.35 0.28 0.30 0.34 0.32 0.37 0.32 0.28 0.24 0.39 0.39 0.41 0.40 0.39 0.38 0.37 0.38 0.39 0.41 0.41 0.41 0.44 0.46 0.46 0.44 0.47 0.51 0.52 0.55 0.58 0.60 0.60 0.61 0.63 0.65 0.66 0.62 0.64 0.71
0.48 0.44 0.41 0.33 0.35 0.23 0.28 0.34 0.34 0.31 0.33 0.37 0.34 0.35 0.39 0.40 0.40 0.41 0.41 0.38 0.38 0.39 0.41 0.43 0.44 0.42 0.43 0.47 0.47 0.46 0.49 0.48 0.49 0.50 0.53 0.54 0.57 0.58 0.61 0.58 0.60 0.63 0.65 0.63
0.53 0.44 0.36 0.29 0.25 0.28 0.29 0.30 0.30 0.30 0.28 0.37 0.34 0.36 0.36 0.36 0.39 0.34 0.40 0.40 0.39 0.40 0.41 0.43 0.46 0.47 0.48 0.49 0.49 0.47 0.46 0.49 0.47 0.48 0.50 0.53 0.57 0.59 0.62 0.62 0.61 0.61 0.62 0.64
0.48 0.45 0.35 0.30 0.23 0.18 0.26 0.32 0.37 0.38 0.21 0.31 0.32 0.30 0.32 0.35 0.25 0.29 0.36 0.38 0.39 0.41 0.43 0.43 0.44 0.44 0.45 0.48 0.50 0.49 0.47 0.47 0.48 0.51 0.53 0.57 0.58 0.59 0.62 0.66 0.70 0.70 0.70 0.72
0.36 0.36 0.30 0.27 0.23 0.25 0.32 0.33 0.37 0.21 0.21 0.29 0.32 0.31 0.32 0.28 0.31 0.36 0.39 0.38 0.41 0.43 0.44 0.46 0.45 0.43 0.45 0.48 0.49 0.48 0.50 0.48 0.52 0.55 0.58 0.61 0.64 0.62 0.63 0.64 0.66 0.68 0.70 0.71
0.31 0.29 0.28 0.29 0.22 0.17 0.35 0.33 0.25 0.29 0.31 0.30 0.30 0.31 0.30 0.33 0.35 0.36 0.37 0.39 0.40 0.42 0.43 0.45 0.45 0.45 0.48 0.49 0.47 0.46 0.47 0.53 0.55 0.55 0.57 0.58 0.62 0.67 0.65 0.64 0.65 0.69 0.72 0.73
0.31 0.33 0.29 0.28 0.26 0.34 0.35 0.32 0.35 0.35 0.32 0.33 0.34 0.35 0.35 0.35 0.36 0.38 0.39 0.41 0.43 0.44 0.47 0.50 0.49 0.50 0.51 0.52 0.52 0.49 0.51 0.54 0.54 0.54 0.55 0.58 0.60 0.63 0.67 0.67 0.66 0.68 0.67 0.67
0.37 0.41 0.31 0.30 0.34 0.34 0.35 0.37 0.38 0.37 0.37 0.39 0.40 0.39 0.40 0.38 0.40 0.41 0.42 0.43 0.44 0.45 0.46 0.48 0.49 0.48 0.49 0.52 0.54 0.55 0.57 0.58 0.57 0.55 0.55 0.57 0.57 0.60 0.63 0.66 0.68 0.68 0.69 0.68
0.36 0.37 0.32 0.31 0.35 0.37 0.37 0.39 0.40 0.40 0.41 0.41 0.42 0.43 0.42 0.42 0.42 0.44 0.44 0.45 0.45 0.46 0.48 0.49 0.48 0.49 0.51 0.53 0.54 0.56 0.57 0.58 0.57 0.57 0.58 0.58 0.59 0.60 0.61 0.62 0.63 0.64 0.66 0.67
0.40 0.35 0.31 0.30 0.39 0.37 0.37 0.41 0.43 0.41 0.41 0.43 0.42 0.42 0.44 0.44 0.43 0.44 0.44 0.46 0.48 0.49 0.50 0.50 0.50 0.50 0.51 0.53 0.53 0.54 0.57 0.59 0.58 0.58 0.59 0.60 0.61 0.61 0.61 0.61 0.62 0.65 0.67 0.67

GFSCGP_prec_pwat_111.txt.gz
Precipitable_Water
0.73 0.55 0.40 0.42 0.46 0.43 0.41 0.37 0.34 0.40 0.52 0.49 0.48 0.47 0.48 0.63 0.71 0.73 0.76 0.80 0.78 0.67 0.73 0.79 0.77 0.77 0.82 0.83 0.85 0.98 0.98 0.99 1.02 1.08 1.03 0.94 0.74 0.65 0.69 0.73 0.77 0.80 0.83 0.86
0.57 0.45 0.55 0.56 0.52 0.45 0.42 0.41 0.38 0.41 0.48 0.46 0.47 0.46 0.46 0.53 0.62 0.69 0.71 0.75 0.81 0.82 0.73 0.75 0.78 0.80 0.77 0.74 0.76 0.85 0.87 0.76 0.85 0.91 0.90 0.90 0.82 0.74 0.72 0.76 0.80 0.84 0.85 0.89
0.41 0.43 0.60 0.57 0.50 0.42 0.40 0.38 0.41 0.39 0.46 0.50 0.46 0.42 0.44 0.51 0.59 0.69 0.73 0.79 0.83 0.86 0.83 0.78 0.75 0.75 0.77 0.72 0.68 0.69 0.82 0.77 0.78 0.87 0.89 0.89 0.89 0.85 0.76 0.77 0.79 0.84 0.90 0.93
0.50 0.55 0.52 0.53 0.47 0.48 0.33 0.46 0.50 0.50 0.42 0.32 0.50 0.30 0.40 0.45 0.48 0.60 0.67 0.74 0.81 0.87 0.89 0.85 0.77 0.73 0.73 0.74 0.71 0.67 0.72 0.81 0.78 0.83 0.82 0.78 0.72 0.67 0.71 0.75 0.82 0.87 0.95 0.97
0.48 0.51 0.48 0.46 0.43 0.52 0.43 0.50 0.49 0.52 0.43 0.39 0.36 0.33 0.37 0.45 0.43 0.50 0.59 0.69 0.79 0.85 0.88 0.88 0.85 0.79 0.73 0.79 0.76 0.69 0.68 0.74 0.81 0.79 0.79 0.77 0.75 0.77 0.80 0.82 0.83 0.89 0.97 1.00
0.48 0.68 0.58 0.49 0.55 0.55 0.62 0.53 0.52 0.52 0.46 0.30 0.36 0.34 0.36 0.38 0.43 0.49 0.51 0.63 0.71 0.80 0.85 0.89 0.91 0.97 0.91 0.83 0.83 0.80 0.69 0.67 0.74 0.78 0.76 0.73 0.72 0.73 0.74 0.77 0.78 0.83 0.88 0.96
0.40 0.46 0.62 0.59 0.49 0.56 0.54 0.46 0.35 0.34 0.34 0.26 0.39 0.35 0.36 0.46 0.46 0.49 0.46 0.53 0.64 0.73 0.77 0.82 0.84 0.88 0.97 0.90 0.83 0.82 0.78 0.69 0.72 0.76 0.77 0.75 0.74 0.77 0.76 0.78 0.80 0.83 0.89 0.92
0.35 0.29 0.47 0.64 0.50 0.40 0.42 0.42 0.33 0.24 0.23 0.26 0.41 0.24 0.29 0.42 0.39 0.44 0.53 0.53 0.54 0.60 0.66 0.72 0.79 0.80 0.92 0.96 0.88 0.83 0.84 0.78 0.79 0.77 0.74 0.79 0.80 0.80 0.80 0.83 0.87 0.89 0.89 0.90
0.37 0.36 0.51 0.59 0.57 0.51 0.46 0.42 0.46 0.38 0.37 0.30 0.32 0.32 0.38 0.40 0.34 0.37 0.42 0.47 0.45 0.50 0.59 0.63 0.66 0.74 0.84 0.93 0.95 0.90 0.87 0.87 0.93 0.92 0.89 0.85 0.84 0.84 0.80 0.82 0.90 0.90 0.94 0.95
0.42 0.36 0.53 0.58 0.62 0.58 0.49 0.48 0.40 0.44 0.27 0.24 0.26 0.26 0.24 0.30 0.27 0.32 0.33 0.37 0.41 0.43 0.49 0.58 0.57 0.63 0.75 0.82 0.88 0.89 0.88 0.86 0.90 0.94 0.99 0.97 0.92 0.89 0.88 0.91 0.89 0.89 0.90 0.93
0.48 0.42 0.45 0.58 0.52 0.45 0.45 0.44 0.44 0.40 0.37 0.25 0.21 0.22 0.32 0.29 0.31 0.29 0.32 0.36 0.37 0.38 0.40 0.49 0.56 0.58 0.57 0.64 0.76 0.85 0.90 0.92 0.94 0.99 1.04 1.08 1.08 1.02 0.98 0.94 0.93 0.94 0.99 0.98
0.56 0.49 0.37 0.41 0.60 0.59 0.54 0.46 0.44 0.36 0.33 0.36 0.32 0.24 0.38 0.37 0.33 0.29 0.28 0.31 0.33 0.35 0.36 0.38 0.40 0.41 0.44 0.51 0.57 0.59 0.71 0.82 0.87 0.91 0.96 0.99 1.07 1.10 1.05 1.00 0.98 1.00 0.98 1.00
0.51 0.44 0.32 0.37 0.49 0.57 0.49 0.49 0.48 0.44 0.41 0.34 0.29 0.26 0.37 0.38 0.34 0.32 0.31 0.33 0.35 0.38 0.39 0.40 0.40 0.40 0.41 0.42 0.46 0.50 0.52 0.52 0.57 0.68 0.77 0.83 0.89 0.98 1.02 0.99 0.97 0.99 0.99 1.00
0.58 0.48 0.40 0.33 0.38 0.45 0.38 0.42 0.45 0.42 0.34 0.30 0.30 0.30 0.32 0.34 0.34 0.35 0.35 0.35 0.39 0.41 0.42 0.41 0.41 0.42 0.43 0.45 0.47 0.48 0.48 0.49 0.50 0.52 0.54 0.57 0.69 0.84 0.96 1.01 1.02 1.03 1.07 1.06
0.55 0.41 0.43 0.43 0.49 0.50 0.46 0.44 0.46 0.43 0.37 0.35 0.31 0.32 0.34 0.35 0.36 0.37 0.37 0.35 0.40 0.41 0.41 0.40 0.40 0.40 0.42 0.44 0.45 0.48 0.51 0.52 0.51 0.49 0.49 0.50 0.56 0.65 0.76 0.84 0.92 0.99 1.00 1.06
0.56 0.36 0.40 0.37 0.44 0.48 0.45 0.49 0.50 0.48 0.47 0.46 0.41 0.35 0.41 0.43 0.43 0.39 0.40 0.44 0.44 0.45 0.45 0.44 0.44 0.43 0.43 0.44 0.44 0.47 0.49 0.51 0.54 0.50 0.50 0.54 0.54 0.57 0.65 0.74 0.82 0.85 0.88 0.94
0.51 0.43 0.42 0.34 0.44 0.46 0.39 0.42 0.42 0.42 0.46 0.40 0.35 0.37 0.44 0.40 0.41 0.42 0.44 0.45 0.45 0.44 0.44 0.44 0.45 0.45 0.45 0.45 0.46 0.47 0.50 0.52 0.52 0.51 0.52 0.54 0.56 0.57 0.59 0.62 0.64 0.64 0.68 0.73
0.42 0.46 0.44 0.36 0.42 0.28 0.39 0.49 0.47 0.43 0.45 0.46 0.45 0.45 0.46 0.44 0.47 0.49 0.50 0.48 0.46 0.45 0.45 0.45 0.45 0.46 0.46 0.47 0.47 0.49 0.51 0.53 0.53 0.53 0.51 0.51 0.53 0.54 0.57 0.58 0.58 0.60 0.61 0.61
0.56 0.50 0.40 0.34 0.32 0.36 0.38 0.40 0.38 0.39 0.36 0.46 0.46 0.49 0.50 0.51 0.52 0.49 0.52 0.52 0.48 0.47 0.46 0.45 0.46 0.45 0.45 0.45 0.47 0.46 0.46 0.50 0.52 0.53 0.54 0.55 0.56 0.55 0.56 0.56 0.58 0.60 0.59 0.59
0.57 0.55 0.44 0.38 0.31 0.26 0.30 0.40 0.52 0.56 0.33 0.43 0.46 0.49 0.52 0.55 0.41 0.41 0.52 0.51 0.46 0.45 0.44 0.43 0.45 0.45 0.44 0.44 0.45 0.43 0.42 0.43 0.42 0.47 0.51 0.55 0.56 0.56 0.56 0.58 0.58 0.60 0.61 0.61
0.41 0.42 0.38 0.37 0.33 0.33 0.39 0.43 0.53 0.35 0.26 0.42 0.45 0.47 0.50 0.45 0.44 0.49 0.49 0.46 0.45 0.44 0.44 0.45 0.45 0.44 0.44 0.46 0.45 0.42 0.42 0.41 0.44 0.48 0.50 0.52 0.55 0.56 0.57 0.58 0.59 0.59 0.59 0.59
0.39 0.36 0.37 0.40 0.34 0.24 0.43 0.45 0.34 0.38 0.45 0.42 0.37 0.43 0.42 0.44 0.46 0.46 0.43 0.42 0.42 0.41 0.42 0.44 0.42 0.43 0.46 0.47 0.46 0.44 0.43 0.47 0.48 0.49 0.49 0.50 0.52 0.54 0.55 0.55 0.55 0.56 0.56 0.57
0.39 0.42 0.39 0.39 0.34 0.43 0.47 0.45 0.49 0.47 0.42 0.41 0.39 0.39 0.42 0.42 0.43 0.43 0.40 0.41 0.40 0.41 0.41 0.43 0.44 0.44 0.45 0.46 0.47 0.44 0.45 0.48 0.48 0.48 0.48 0.50 0.52 0.54 0.55 0.54 0.55 0.55 0.56 0.56
0.48 0.52 0.42 0.42 0.45 0.44 0.45 0.48 0.49 0.46 0.42 0.41 0.41 0.41 0.42 0.39 0.40 0.39 0.39 0.39 0.39 0.41 0.42 0.43 0.43 0.42 0.42 0.44 0.45 0.46 0.48 0.49 0.48 0.48 0.48 0.50 0.50 0.51 0.53 0.54 0.55 0.55 0.56 0.57
0.46 0.50 0.47 0.44 0.47 0.48 0.48 0.48 0.47 0.46 0.43 0.42 0.42 0.40 0.40 0.40 0.38 0.37 0.37 0.39 0.40 0.41 0.43 0.43 0.42 0.42 0.43 0.45 0.45 0.47 0.49 0.49 0.47 0.47 0.47 0.47 0.47 0.47 0.48 0.50 0.51 0.52 0.55 0.56
0.45 0.44 0.42 0.40 0.48 0.47 0.51 0.54 0.49 0.43 0.43 0.44 0.42 0.41 0.42 0.40 0.38 0.40 0.40 0.41 0.42 0.41 0.43 0.43 0.44 0.43 0.43 0.44 0.45 0.46 0.47 0.47 0.45 0.44 0.44 0.45 0.45 0.46 0.47 0.47 0.48 0.52 0.52 0.54

GFSCGP_prec_pwat_114.txt.gz
Precipitable_Water
0.67 0.56 0.41 0.41 0.49 0.49 0.44 0.37 0.31 0.34 0.41 0.40 0.44 0.51 0.55 0.61 0.58 0.60 0.77 0.76 0.78 0.86 0.87 0.81 0.82 0.83 0.83 0.81 0.82 0.97 1.03 1.16 1.30 1.32 1.22 1.15 1.03 1.03 0.91 0.71 0.70 0.75 0.79 0.81
0.53 0.40 0.52 0.59 0.55 0.50 0.46 0.41 0.36 0.40 0.44 0.44 0.41 0.37 0.47 0.49 0.53 0.55 0.62 0.72 0.76 0.78 0.90 0.99 0.92 0.87 0.83 0.78 0.77 0.82 0.93 1.03 1.09 1.16 1.17 1.09 1.04 0.96 0.85 0.73 0.72 0.78 0.79 0.80
0.37 0.42 0.59 0.56 0.54 0.46 0.44 0.41 0.41 0.38 0.44 0.45 0.42 0.35 0.41 0.47 0.49 0.50 0.53 0.66 0.71 0.73 0.75 0.87 1.00 0.95 0.86 0.80 0.80 0.74 0.78 0.92 1.02 0.99 0.96 0.97 0.93 0.90 0.82 0.77 0.72 0.76 0.82 0.84
0.44 0.52 0.50 0.49 0.45 0.51 0.38 0.49 0.48 0.48 0.41 0.28 0.45 0.24 0.32 0.39 0.39 0.44 0.45 0.53 0.64 0.72 0.78 0.86 0.94 1.02 0.99 0.88 0.84 0.84 0.79 0.79 0.92 0.97 0.83 0.80 0.76 0.71 0.76 0.77 0.77 0.76 0.83 0.86
0.41 0.47 0.47 0.42 0.38 0.52 0.42 0.52 0.46 0.44 0.41 0.42 0.40 0.34 0.31 0.40 0.36 0.38 0.43 0.47 0.58 0.68 0.77 0.83 0.88 0.98 1.05 1.02 0.90 0.83 0.84 0.78 0.80 0.90 0.87 0.76 0.75 0.78 0.83 0.85 0.82 0.81 0.83 0.88
0.59 0.70 0.57 0.49 0.52 0.50 0.54 0.53 0.51 0.48 0.43 0.31 0.36 0.35 0.28 0.30 0.32 0.33 0.39 0.46 0.54 0.63 0.72 0.79 0.88 0.95 1.01 1.07 1.00 0.88 0.83 0.81 0.79 0.79 0.87 0.81 0.72 0.75 0.76 0.78 0.79 0.82 0.85 0.90
0.43 0.44 0.60 0.58 0.50 0.55 0.50 0.44 0.32 0.30 0.31 0.22 0.34 0.34 0.27 0.37 0.40 0.37 0.39 0.48 0.52 0.56 0.65 0.72 0.80 0.86 0.94 1.02 1.07 1.04 0.88 0.82 0.82 0.78 0.80 0.84 0.83 0.79 0.74 0.74 0.77 0.80 0.82 0.85
0.22 0.20 0.40 0.53 0.49 0.41 0.43 0.43 0.30 0.21 0.23 0.23 0.43 0.27 0.30 0.43 0.46 0.44 0.41 0.47 0.52 0.55 0.58 0.66 0.71 0.79 0.85 0.94 1.04 1.09 1.03 0.89 0.85 0.83 0.80 0.83 0.85 0.84 0.82 0.79 0.77 0.78 0.80 0.81
0.28 0.26 0.45 0.47 0.51 0.57 0.43 0.38 0.42 0.35 0.33 0.28 0.33 0.34 0.41 0.46 0.43 0.39 0.37 0.40 0.43 0.51 0.53 0.54 0.59 0.68 0.75 0.86 0.93 1.03 1.10 1.00 0.91 0.86 0.85 0.83 0.81 0.81 0.77 0.81 0.86 0.85 0.87 0.88
0.35 0.28 0.45 0.48 0.56 0.53 0.47 0.52 0.38 0.38 0.23 0.19 0.24 0.26 0.26 0.34 0.35 0.37 0.36 0.36 0.39 0.44 0.45 0.47 0.53 0.60 0.66 0.75 0.83 0.98 1.09 1.06 0.97 0.91 0.88 0.86 0.88 0.92 0.94 0.95 0.89 0.87 0.87 0.90
0.39 0.31 0.36 0.50 0.46 0.39 0.42 0.42 0.44 0.42 0.37 0.23 0.18 0.21 0.34 0.33 0.34 0.32 0.35 0.38 0.37 0.37 0.39 0.43 0.47 0.52 0.56 0.64 0.77 0.86 0.97 1.04 1.01 0.98 0.97 0.96 0.95 0.97 1.00 1.00 1.01 1.00 1.00 0.96
0.38 0.31 0.22 0.29 0.50 0.61 0.52 0.42 0.45 0.34 0.26 0.30 0.27 0.23 0.36 0.34 0.36 0.39 0.38 0.39 0.38 0.36 0.37 0.38 0.40 0.45 0.53 0.55 0.58 0.67 0.79 0.89 0.99 1.05 1.06 1.08 1.11 1.11 1.08 1.08 1.10 1.15 1.13 1.13
0.38 0.30 0.21 0.25 0.37 0.48 0.47 0.51 0.46 0.45 0.40 0.30 0.25 0.22 0.37 0.36 0.37 0.38 0.37 0.37 0.36 0.35 0.36 0.36 0.37 0.37 0.38 0.41 0.47 0.50 0.53 0.57 0.68 0.83 0.90 0.94 0.95 0.98 1.02 1.07 1.11 1.15 1.18 1.19
0.49 0.34 0.28 0.19 0.27 0.36 0.34 0.43 0.50 0.45 0.37 0.29 0.29 0.27 0.32 0.33 0.36 0.37 0.36 0.37 0.39 0.40 0.41 0.39 0.39 0.39 0.40 0.41 0.42 0.44 0.46 0.48 0.49 0.50 0.51 0.54 0.63 0.75 0.85 0.93 0.99 1.07 1.16 1.19
0.49 0.33 0.33 0.29 0.34 0.40 0.38 0.39 0.44 0.41 0.37 0.36 0.29 0.33 0.36 0.36 0.38 0.38 0.39 0.39 0.40 0.41 0.40 0.41 0.42 0.42 0.43 0.43 0.44 0.45 0.46 0.48 0.50 0.48 0.48 0.48 0.51 0.53 0.57 0.62 0.72 0.84 0.92 0.98
0.46 0.32 0.41 0.28 0.34 0.39 0.39 0.46 0.48 0.47 0.45 0.46 0.37 0.34 0.42 0.46 0.44 0.39 0.38 0.39 0.39 0.41 0.42 0.43 0.43 0.43 0.44 0.45 0.45 0.45 0.46 0.48 0.51 0.51 0.50 0.51 0.53 0.55 0.56 0.59 0.61 0.65 0.72 0.81
0.32 0.36 0.32 0.26 0.36 0.40 0.34 0.35 0.39 0.46 0.50 0.44 0.35 0.33 0.47 0.45 0.45 0.44 0.42 0.40 0.38 0.40 0.46 0.47 0.47 0.47 0.47 0.47 0.47 0.45 0.46 0.50 0.52 0.53 0.55 0.54 0.54 0.54 0.54 0.57 0.59 0.64 0.68 0.72
0.26 0.30 0.34 0.23 0.34 0.23 0.26 0.39 0.42 0.40 0.40 0.50 0.48 0.44 0.48 0.48 0.51 0.53 0.51 0.46 0.46 0.48 0.47 0.49 0.50 0.50 0.50 0.50 0.50 0.51 0.51 0.51 0.52 0.53 0.55 0.57 0.56 0.55 0.57 0.57 0.56 0.58 0.59 0.59
0.29 0.28 0.26 0.25 0.27 0.33 0.32 0.34 0.35 0.37 0.34 0.47 0.47 0.45 0.50 0.55 0.57 0.53 0.55 0.53 0.52 0.53 0.55 0.55 0.54 0.51 0.50 0.50 0.50 0.49 0.48 0.49 0.49 0.51 0.54 0.57 0.58 0.57 0.57 0.56 0.57 0.58 0.58 0.58
0.30 0.33 0.26 0.28 0.26 0.24 0.24 0.39 0.50 0.55 0.35 0.45 0.48 0.46 0.50 0.57 0.46 0.42 0.57 0.59 0.59 0.60 0.60 0.55 0.52 0.49 0.48 0.48 0.49 0.46 0.45 0.45 0.45 0.47 0.49 0.54 0.56 0.56 0.56 0.57 0.56 0.57 0.57 0.56
0.28 0.34 0.30 0.29 0.29 0.32 0.39 0.44 0.55 0.38 0.23 0.43 0.46 0.48 0.53 0.48 0.44 0.57 0.62 0.61 0.62 0.61 0.59 0.58 0.50 0.46 0.47 0.49 0.48 0.44 0.44 0.42 0.46 0.48 0.49 0.50 0.51 0.51 0.53 0.54 0.54 0.54 0.54 0.55
0.25 0.32 0.32 0.36 0.31 0.25 0.45 0.49 0.36 0.40 0.42 0.42 0.44 0.44 0.45 0.48 0.57 0.59 0.62 0.62 0.62 0.60 0.59 0.51 0.47 0.45 0.47 0.48 0.47 0.44 0.44 0.47 0.49 0.49 0.49 0.49 0.50 0.51 0.52 0.52 0.52 0.53 0.53 0.52
0.26 0.35 0.37 0.40 0.34 0.46 0.53 0.51 0.55 0.50 0.46 0.47 0.46 0.47 0.47 0.48 0.54 0.61 0.60 0.60 0.58 0.54 0.49 0.48 0.46 0.45 0.47 0.48 0.48 0.45 0.46 0.48 0.48 0.48 0.47 0.48 0.50 0.51 0.52 0.51 0.51 0.51 0.52 0.51
0.36 0.53 0.45 0.45 0.48 0.49 0.51 0.54 0.57 0.54 0.49 0.49 0.49 0.48 0.49 0.49 0.50 0.56 0.57 0.54 0.51 0.49 0.46 0.46 0.45 0.44 0.44 0.45 0.45 0.45 0.47 0.48 0.47 0.46 0.46 0.48 0.48 0.48 0.50 0.50 0.50 0.49 0.49 0.49
0.41 0.48 0.46 0.48 0.51 0.54 0.57 0.57 0.56 0.54 0.51 0.49 0.50 0.50 0.49 0.53 0.49 0.52 0.50 0.48 0.47 0.45 0.46 0.46 0.45 0.43 0.42 0.45 0.46 0.46 0.47 0.47 0.45 0.45 0.45 0.45 0.45 0.45 0.46 0.47 0.47 0.47 0.49 0.49
0.40 0.39 0.39 0.40 0.47 0.47 0.50 0.54 0.54 0.51 0.47 0.47 0.45 0.46 0.49 0.50 0.46 0.46 0.45 0.46 0.45 0.45 0.46 0.44 0.43 0.43 0.44 0.45 0.44 0.45 0.46 0.46 0.44 0.43 0.42 0.42 0.42 0.42 0.43 0.43 0.43 0.47 0.47 0.47

GFSCGP_prec_pwat_117.txt.gz
Precipitable_Water
0.70 0.54 0.42 0.45 0.51 0.49 0.44 0.41 0.36 0.36 0.39 0.35 0.35 0.44 0.62 0.72 0.68 0.69 0.72 0.64 0.74 0.88 0.96 0.97 0.93 0.89 0.88 0.87 0.85 0.85 0.97 1.08 1.23 1.27 1.22 1.19 1.15 1.19 1.15 1.06 0.98 0.75 0.73 0.75
0.53 0.37 0.51 0.61 0.58 0.51 0.48 0.42 0.39 0.44 0.45 0.40 0.36 0.33 0.39 0.52 0.57 0.63 0.65 0.61 0.59 0.78 0.86 0.95 0.97 1.02 0.90 0.85 0.82 0.84 0.83 0.99 1.07 1.14 1.24 1.29 1.29 1.27 1.21 1.14 1.01 0.81 0.72 0.76
0.40 0.43 0.52 0.51 0.52 0.49 0.46 0.42 0.42 0.41 0.49 0.48 0.40 0.30 0.30 0.38 0.46 0.52 0.55 0.58 0.57 0.59 0.70 0.80 0.94 1.03 1.08 0.96 0.84 0.83 0.80 0.82 0.95 1.08 1.12 1.15 1.24 1.24 1.14 1.09 0.94 0.82 0.73 0.75
0.45 0.51 0.47 0.45 0.40 0.49 0.39 0.50 0.49 0.45 0.43 0.31 0.44 0.21 0.26 0.32 0.33 0.38 0.42 0.48 0.53 0.51 0.57 0.70 0.79 0.87 0.98 1.10 1.10 0.92 0.91 0.86 0.88 0.98 1.02 0.98 0.89 0.81 0.86 0.84 0.86 0.84 0.84 0.76
0.35 0.39 0.39 0.37 0.38 0.50 0.40 0.54 0.50 0.47 0.41 0.40 0.39 0.31 0.26 0.34 0.28 0.30 0.36 0.41 0.44 0.46 0.49 0.57 0.71 0.82 0.97 1.07 1.14 1.10 0.99 0.97 0.97 0.92 0.92 0.95 0.94 0.88 0.85 0.84 0.81 0.83 0.86 0.86
0.44 0.54 0.47 0.39 0.46 0.46 0.52 0.49 0.48 0.49 0.44 0.30 0.28 0.32 0.23 0.26 0.31 0.32 0.35 0.38 0.43 0.50 0.50 0.55 0.67 0.78 0.90 1.03 1.09 1.15 1.08 0.98 1.00 0.98 0.92 0.85 0.86 0.90 0.81 0.78 0.76 0.81 0.86 0.89
0.40 0.42 0.54 0.56 0.43 0.51 0.48 0.40 0.28 0.27 0.29 0.21 0.30 0.31 0.27 0.35 0.39 0.38 0.34 0.35 0.39 0.44 0.53 0.55 0.61 0.69 0.80 0.92 1.03 1.09 1.10 0.97 0.96 0.94 0.95 0.87 0.81 0.84 0.85 0.82 0.76 0.78 0.79 0.83
0.27 0.25 0.45 0.56 0.50 0.44 0.43 0.42 0.27 0.19 0.20 0.20 0.36 0.26 0.26 0.39 0.40 0.39 0.38 0.39 0.43 0.46 0.54 0.55 0.57 0.62 0.70 0.83 0.96 1.04 1.07 1.06 1.04 0.96 0.94 0.94 0.89 0.83 0.82 0.85 0.82 0.77 0.76 0.78
0.25 0.27 0.46 0.55 0.57 0.56 0.45 0.36 0.46 0.34 0.32 0.24 0.28 0.28 0.34 0.39 0.40 0.42 0.39 0.41 0.40 0.41 0.49 0.52 0.59 0.61 0.64 0.74 0.86 0.94 0.99 1.03 1.10 1.14 1.08 0.99 0.94 0.88 0.82 0.82 0.87 0.83 0.84 0.84
0.37 0.25 0.42 0.48 0.54 0.51 0.43 0.52 0.37 0.38 0.22 0.19 0.21 0.21 0.21 0.28 0.32 0.38 0.37 0.36 0.39 0.42 0.46 0.48 0.53 0.59 0.59 0.63 0.73 0.84 0.94 0.97 1.00 1.07 1.17 1.07 1.00 0.98 0.95 0.94 0.89 0.87 0.89 0.93
0.36 0.32 0.33 0.45 0.37 0.32 0.40 0.37 0.43 0.44 0.35 0.20 0.15 0.17 0.29 0.29 0.31 0.32 0.33 0.37 0.41 0.43 0.45 0.44 0.46 0.50 0.53 0.57 0.67 0.76 0.80 0.89 0.92 0.98 1.12 1.15 1.01 0.98 1.02 1.02 1.00 0.99 1.04 1.08
0.38 0.37 0.26 0.26 0.45 0.53 0.45 0.38 0.42 0.30 0.23 0.31 0.28 0.19 0.33 0.34 0.35 0.36 0.34 0.35 0.40 0.44 0.43 0.43 0.43 0.45 0.48 0.52 0.58 0.67 0.77 0.86 0.95 1.00 1.04 1.08 1.02 0.95 0.92 0.94 1.04 1.10 1.11 1.15
0.39 0.28 0.21 0.23 0.30 0.41 0.36 0.45 0.46 0.42 0.41 0.27 0.25 0.15 0.34 0.36 0.36 0.36 0.37 0.38 0.38 0.41 0.43 0.41 0.41 0.40 0.41 0.46 0.49 0.53 0.64 0.78 0.91 0.99 1.01 1.04 1.08 1.10 1.09 1.08 1.09 1.07 1.05 1.08
0.45 0.31 0.24 0.17 0.19 0.25 0.26 0.35 0.40 0.44 0.36 0.24 0.28 0.17 0.28 0.32 0.32 0.35 0.37 0.39 0.37 0.37 0.40 0.40 0.41 0.41 0.42 0.42 0.42 0.44 0.46 0.50 0.53 0.58 0.68 0.78 0.85 0.91 0.95 0.98 0.98 0.99 1.00 0.99
0.46 0.31 0.34 0.31 0.31 0.30 0.32 0.31 0.36 0.34 0.31 0.35 0.29 0.31 0.27 0.36 0.39 0.42 0.42 0.40 0.38 0.39 0.42 0.43 0.43 0.44 0.44 0.44 0.45 0.46 0.46 0.48 0.49 0.48 0.48 0.47 0.49 0.51 0.53 0.57 0.66 0.74 0.82 0.88
0.47 0.31 0.34 0.29 0.38 0.38 0.29 0.33 0.35 0.35 0.33 0.35 0.31 0.34 0.35 0.41 0.43 0.43 0.44 0.41 0.40 0.40 0.44 0.46 0.44 0.43 0.43 0.45 0.48 0.48 0.48 0.49 0.51 0.50 0.50 0.54 0.54 0.55 0.55 0.58 0.60 0.61 0.62 0.66
0.31 0.28 0.26 0.20 0.30 0.32 0.29 0.24 0.25 0.29 0.36 0.36 0.29 0.26 0.40 0.40 0.41 0.44 0.47 0.44 0.40 0.41 0.45 0.48 0.48 0.46 0.47 0.48 0.51 0.52 0.52 0.51 0.49 0.48 0.51 0.54 0.56 0.56 0.57 0.59 0.60 0.60 0.62 0.66
0.25 0.25 0.25 0.17 0.22 0.16 0.20 0.35 0.36 0.29 0.24 0.39 0.38 0.33 0.39 0.43 0.50 0.53 0.53 0.50 0.48 0.47 0.47 0.49 0.50 0.52 0.55 0.55 0.55 0.54 0.51 0.49 0.49 0.49 0.52 0.55 0.57 0.57 0.58 0.59 0.59 0.59 0.61 0.61
0.23 0.20 0.16 0.15 0.14 0.18 0.18 0.19 0.26 0.33 0.24 0.35 0.32 0.28 0.34 0.47 0.54 0.49 0.53 0.56 0.55 0.53 0.53 0.52 0.57 0.59 0.58 0.55 0.54 0.52 0.49 0.50 0.50 0.50 0.52 0.54 0.57 0.57 0.59 0.58 0.58 0.59 0.59 0.59
0.21 0.22 0.17 0.14 0.12 0.10 0.10 0.24 0.33 0.42 0.27 0.29 0.35 0.31 0.34 0.47 0.39 0.32 0.56 0.59 0.59 0.59 0.59 0.59 0.59 0.60 0.57 0.56 0.54 0.49 0.48 0.49 0.47 0.48 0.50 0.54 0.56 0.58 0.58 0.59 0.59 0.59 0.59 0.58
0.18 0.20 0.16 0.13 0.13 0.13 0.16 0.22 0.37 0.28 0.21 0.35 0.39 0.35 0.41 0.46 0.40 0.47 0.56 0.57 0.61 0.63 0.63 0.64 0.61 0.57 0.57 0.59 0.57 0.49 0.47 0.46 0.49 0.52 0.54 0.55 0.55 0.55 0.55 0.55 0.55 0.54 0.54 0.54
0.17 0.18 0.17 0.18 0.16 0.10 0.28 0.32 0.30 0.34 0.39 0.40 0.41 0.46 0.47 0.50 0.51 0.55 0.58 0.59 0.61 0.62 0.64 0.64 0.61 0.60 0.61 0.60 0.55 0.48 0.46 0.50 0.52 0.54 0.54 0.54 0.54 0.54 0.54 0.53 0.52 0.52 0.52 0.51
0.20 0.26 0.23 0.24 0.17 0.28 0.37 0.41 0.52 0.49 0.42 0.44 0.48 0.49 0.52 0.51 0.51 0.51 0.53 0.56 0.59 0.61 0.64 0.65 0.63 0.60 0.60 0.58 0.52 0.49 0.50 0.53 0.53 0.53 0.52 0.52 0.52 0.52 0.52 0.50 0.49 0.49 0.50 0.49
0.29 0.34 0.28 0.29 0.30 0.36 0.40 0.44 0.54 0.55 0.49 0.50 0.53 0.50 0.50 0.47 0.49 0.48 0.51 0.55 0.57 0.61 0.63 0.66 0.64 0.60 0.53 0.52 0.52 0.52 0.53 0.53 0.51 0.49 0.48 0.49 0.48 0.49 0.49 0.49 0.48 0.47 0.46 0.46
0.28 0.33 0.30 0.31 0.36 0.40 0.42 0.46 0.52 0.57 0.59 0.56 0.56 0.55 0.54 0.52 0.49 0.50 0.52 0.56 0.59 0.62 0.66 0.67 0.64 0.54 0.49 0.51 0.52 0.53 0.52 0.51 0.49 0.48 0.47 0.46 0.46 0.45 0.44 0.44 0.44 0.43 0.45 0.46
0.34 0.30 0.30 0.31 0.35 0.34 0.41 0.49 0.53 0.53 0.54 0.55 0.53 0.53 0.55 0.55 0.52 0.52 0.53 0.58 0.60 0.61 0.65 0.60 0.53 0.49 0.49 0.50 0.50 0.50 0.50 0.49 0.47 0.46 0.45 0.44 0.43 0.42 0.41 0.39 0.38 0.41 0.42 0.43

GFSCGP_prec_pwat_123.txt.gz
Precipitable_Water
0.69 0.52 0.39 0.43 0.50 0.50 0.46 0.44 0.39 0.45 0.53 0.46 0.39 0.35 0.33 0.40 0.49 0.60 0.70 0.80 0.83 0.82 0.87 0.92 0.99 1.10 1.19 1.21 1.00 0.93 0.91 0.92 0.93 0.98 1.13 1.23 1.22 1.27 1.26 1.27 1.30 1.27 1.11 1.03
0.60 0.43 0.50 0.57 0.56 0.52 0.49 0.42 0.41 0.47 0.53 0.49 0.43 0.38 0.38 0.37 0.34 0.42 0.54 0.68 0.76 0.80 0.83 0.83 0.88 0.96 1.06 1.13 1.12 0.98 0.92 0.93 0.91 0.91 0.93 1.09 1.19 1.26 1.28 1.28 1.29 1.31 1.27 1.12
0.48 0.50 0.60 0.56 0.52 0.48 0.49 0.46 0.45 0.43 0.48 0.51 0.44 0.33 0.32 0.36 0.37 0.35 0.36 0.43 0.57 0.69 0.78 0.78 0.71 0.81 0.92 1.02 1.13 1.16 1.10 1.00 1.02 0.97 0.95 0.95 1.06 1.13 1.16 1.18 1.21 1.26 1.32 1.28
0.57 0.63 0.57 0.54 0.48 0.52 0.41 0.55 0.55 0.50 0.45 0.31 0.46 0.23 0.29 0.32 0.32 0.34 0.33 0.33 0.36 0.51 0.65 0.62 0.50 0.61 0.72 0.77 0.99 1.11 1.13 1.19 1.21 1.14 0.95 0.84 0.78 0.75 0.93 1.11 1.22 1.27 1.33 1.36
0.48 0.54 0.55 0.48 0.49 0.56 0.47 0.56 0.53 0.52 0.47 0.43 0.37 0.33 0.28 0.35 0.29 0.30 0.32 0.33 0.34 0.37 0.49 0.50 0.49 0.48 0.51 0.63 0.78 0.97 1.05 1.13 1.22 1.28 1.25 0.98 0.87 0.84 0.90 0.91 1.04 1.23 1.32 1.36
0.55 0.62 0.56 0.55 0.58 0.57 0.58 0.51 0.50 0.50 0.46 0.30 0.32 0.32 0.24 0.26 0.28 0.30 0.32 0.33 0.34 0.36 0.38 0.44 0.51 0.52 0.51 0.53 0.59 0.72 0.89 0.97 1.08 1.16 1.24 1.26 1.09 0.93 0.89 0.86 0.81 0.89 1.07 1.14
0.51 0.51 0.57 0.56 0.49 0.57 0.51 0.41 0.28 0.25 0.25 0.19 0.32 0.30 0.27 0.30 0.34 0.35 0.34 0.34 0.35 0.38 0.39 0.39 0.41 0.47 0.53 0.55 0.59 0.63 0.71 0.77 0.94 1.07 1.13 1.22 1.25 1.19 0.99 0.92 0.86 0.82 0.81 0.92
0.37 0.33 0.49 0.57 0.44 0.36 0.40 0.38 0.26 0.15 0.16 0.16 0.29 0.17 0.18 0.28 0.31 0.35 0.36 0.37 0.36 0.36 0.40 0.44 0.46 0.47 0.49 0.52 0.60 0.65 0.68 0.70 0.90 1.00 1.04 1.10 1.19 1.24 1.20 1.10 1.00 0.90 0.84 0.81
0.37 0.35 0.54 0.55 0.55 0.48 0.40 0.32 0.41 0.29 0.27 0.20 0.20 0.18 0.23 0.26 0.24 0.29 0.31 0.35 0.38 0.42 0.45 0.45 0.46 0.47 0.48 0.50 0.53 0.61 0.68 0.72 0.81 0.92 1.00 1.07 1.13 1.16 1.20 1.18 1.14 1.08 1.04 0.95
0.42 0.33 0.47 0.52 0.56 0.55 0.47 0.50 0.32 0.34 0.18 0.15 0.16 0.16 0.13 0.20 0.21 0.24 0.29 0.32 0.37 0.44 0.43 0.43 0.43 0.45 0.48 0.51 0.55 0.58 0.64 0.68 0.75 0.83 0.92 1.01 1.08 1.15 1.19 1.22 1.16 1.12 1.14 1.11
0.44 0.36 0.39 0.47 0.40 0.36 0.41 0.37 0.38 0.39 0.33 0.20 0.15 0.13 0.23 0.24 0.27 0.28 0.31 0.37 0.39 0.39 0.39 0.41 0.43 0.46 0.48 0.50 0.52 0.56 0.60 0.65 0.72 0.80 0.87 0.97 1.04 1.11 1.17 1.19 1.21 1.18 1.18 1.22
0.45 0.36 0.31 0.35 0.48 0.48 0.45 0.38 0.39 0.31 0.27 0.32 0.28 0.16 0.31 0.32 0.31 0.33 0.34 0.37 0.40 0.42 0.42 0.42 0.43 0.46 0.49 0.50 0.51 0.51 0.56 0.61 0.70 0.77 0.82 0.86 0.95 1.02 1.07 1.11 1.17 1.22 1.22 1.28
0.42 0.35 0.26 0.30 0.38 0.46 0.38 0.38 0.40 0.42 0.41 0.29 0.26 0.15 0.33 0.34 0.34 0.37 0.36 0.37 0.39 0.40 0.41 0.42 0.44 0.43 0.43 0.46 0.50 0.51 0.57 0.64 0.72 0.79 0.82 0.87 0.92 0.95 0.99 1.06 1.09 1.13 1.19 1.25
0.45 0.35 0.27 0.20 0.23 0.30 0.28 0.30 0.34 0.36 0.29 0.30 0.25 0.16 0.26 0.29 0.31 0.33 0.34 0.34 0.34 0.39 0.38 0.41 0.46 0.44 0.42 0.44 0.44 0.47 0.49 0.52 0.59 0.71 0.78 0.82 0.88 0.94 0.99 1.05 1.11 1.17 1.21 1.20
0.40 0.26 0.29 0.29 0.30 0.29 0.26 0.24 0.28 0.27 0.24 0.24 0.15 0.20 0.22 0.26 0.28 0.30 0.33 0.36 0.36 0.36 0.39 0.43 0.48 0.46 0.42 0.45 0.47 0.49 0.49 0.51 0.53 0.51 0.52 0.55 0.63 0.70 0.76 0.84 0.94 1.03 1.09 1.12
0.42 0.26 0.29 0.25 0.29 0.29 0.25 0.27 0.27 0.27 0.29 0.26 0.25 0.17 0.28 0.28 0.36 0.34 0.33 0.32 0.31 0.34 0.35 0.38 0.46 0.49 0.46 0.46 0.48 0.48 0.50 0.52 0.54 0.53 0.53 0.55 0.56 0.58 0.59 0.60 0.61 0.64 0.68 0.75
0.35 0.29 0.26 0.22 0.33 0.33 0.22 0.23 0.25 0.25 0.27 0.24 0.18 0.13 0.25 0.29 0.29 0.28 0.29 0.31 0.32 0.35 0.36 0.39 0.42 0.47 0.51 0.47 0.50 0.51 0.54 0.57 0.57 0.56 0.56 0.55 0.56 0.55 0.55 0.56 0.57 0.57 0.59 0.63
0.34 0.33 0.31 0.24 0.27 0.16 0.20 0.28 0.28 0.26 0.26 0.26 0.23 0.23 0.26 0.27 0.27 0.23 0.30 0.29 0.28 0.31 0.33 0.39 0.41 0.46 0.51 0.52 0.51 0.54 0.57 0.57 0.57 0.57 0.57 0.56 0.55 0.54 0.54 0.55 0.54 0.55 0.58 0.59
0.40 0.33 0.26 0.21 0.18 0.17 0.17 0.19 0.19 0.18 0.14 0.18 0.17 0.19 0.21 0.22 0.21 0.20 0.26 0.31 0.39 0.38 0.41 0.43 0.45 0.43 0.47 0.54 0.52 0.55 0.57 0.57 0.56 0.56 0.57 0.58 0.57 0.53 0.52 0.52 0.54 0.57 0.58 0.59
0.37 0.33 0.24 0.19 0.13 0.09 0.12 0.14 0.17 0.18 0.08 0.14 0.16 0.17 0.19 0.21 0.13 0.14 0.26 0.39 0.44 0.46 0.44 0.45 0.49 0.49 0.49 0.56 0.59 0.58 0.58 0.57 0.55 0.57 0.58 0.60 0.59 0.57 0.53 0.54 0.54 0.58 0.60 0.59
0.22 0.23 0.18 0.17 0.14 0.13 0.16 0.17 0.20 0.10 0.08 0.17 0.18 0.19 0.20 0.18 0.22 0.29 0.37 0.37 0.46 0.50 0.53 0.52 0.51 0.52 0.52 0.58 0.62 0.60 0.59 0.57 0.60 0.62 0.63 0.61 0.60 0.57 0.56 0.56 0.57 0.57 0.57 0.58
0.16 0.16 0.16 0.17 0.13 0.08 0.20 0.17 0.11 0.13 0.18 0.21 0.22 0.24 0.26 0.30 0.32 0.36 0.41 0.43 0.47 0.51 0.54 0.57 0.57 0.58 0.59 0.62 0.62 0.59 0.58 0.62 0.63 0.64 0.64 0.62 0.61 0.57 0.56 0.56 0.57 0.56 0.56 0.54
0.14 0.15 0.13 0.13 0.09 0.18 0.23 0.22 0.24 0.25 0.23 0.23 0.25 0.27 0.29 0.30 0.32 0.36 0.38 0.40 0.46 0.53 0.57 0.59 0.61 0.61 0.63 0.64 0.64 0.60 0.62 0.64 0.64 0.64 0.63 0.62 0.61 0.59 0.57 0.55 0.55 0.55 0.56 0.56
0.19 0.21 0.16 0.17 0.16 0.20 0.23 0.25 0.26 0.27 0.27 0.28 0.28 0.29 0.30 0.29 0.30 0.31 0.37 0.42 0.48 0.53 0.54 0.59 0.60 0.59 0.60 0.63 0.64 0.64 0.64 0.65 0.65 0.64 0.62 0.60 0.58 0.58 0.57 0.57 0.57 0.56 0.54 0.53
0.17 0.19 0.17 0.17 0.19 0.22 0.24 0.25 0.24 0.26 0.28 0.29 0.30 0.30 0.30 0.32 0.32 0.33 0.37 0.43 0.48 0.54 0.56 0.58 0.60 0.59 0.59 0.61 0.63 0.64 0.65 0.65 0.64 0.63 0.61 0.57 0.57 0.56 0.56 0.56 0.56 0.55 0.55 0.54
0.18 0.17 0.16 0.15 0.17 0.17 0.21 0.24 0.26 0.26 0.27 0.27 0.27 0.29 0.33 0.37 0.37 0.40 0.40 0.43 0.47 0.54 0.56 0.58 0.58 0.57 0.58 0.61 0.62 0.62 0.64 0.65 0.63 0.61 0.58 0.56 0.56 0.56 0.56 0.55 0.53 0.57 0.55 0.53